Spokane, WA

11:31 PM PST on December 11, 2017 (GMT -0800)
Spokane International

Weather History for KGEG - February, 2014

Change the Weather History Date:

Monday, February 24, 2014

  Actual Average Record
Temperature  
Mean Temperature 24 °F 34 °F  
Max Temperature 25 °F 42 °F 59 °F (1995)
Min Temperature 22 °F 27 °F 3 °F (2011)
Degree Days  
Heating Degree Days 41 30  
Month to date heating degree days 934 776  
Since 1 July heating degree days 4892 4709  
Cooling Degree Days 0 0  
Month to date cooling degree days 0 0  
Year to date cooling degree days 0 0  
Moisture  
Dew Point 19 °F    
Average Humidity 85    
Maximum Humidity 96    
Minimum Humidity 74    
Precipitation  
Precipitation 0.21 in 0.05 in 0.66 in (1914)
Month to date precipitation 1.78 1.13  
Year to date precipitation 2.79 2.92  
Snow  
Snow 5.20 in 0.20 in 5.40 in (2011)
Month to date snowfall 17.8 6.0  
Since 1 July snowfall 31.7 39.5  
Snow Depth 3.00 in    
Sea Level Pressure  
Sea Level Pressure 30.21 in    
Wind  
Wind Speed 9 mph (NE)    
Max Wind Speed 15 mph    
Max Gust Speed 19 mph    
Visibility 5 miles    
Events Fog , Snow    
T = Trace of Precipitation, MM = Missing Value Source: NWS Daily Summary

Daily Weather History Graph

Daily Weather History Graph

Search for Another Location

Airport or City:

Trip Planner

Search our weather history database for the weather conditions in past years. The results will help you decide how hot, cold, wet, or windy it might be!

Date:

Astronomy

Feb. 24, 2014 Rise Set
Actual Time 6:39 AM PST 5:27 PM PST
Civil Twilight 6:08 AM PST 5:58 PM PST
Nautical Twilight 5:32 AM PST 6:34 PM PST
Astronomical Twilight 4:57 AM PST 7:10 PM PST
Moon 2:56 AM PST (2/24) 12:20 PM PST (2/24)
Length of Visible Light 11h 50m
Length of Day
10h 47m
Waning Crescent, 27% of the Moon is Illuminated
Feb 24
Waning Crescent
Mar 1
New
Mar 8
First Quarter
Mar 16
Full
Mar 23
Last Quarter

Hourly Weather History & Observations

Time (PST) Temp. Windchill Dew Point Humidity Pressure Visibility Wind Dir Wind Speed Gust Speed Precip Events Conditions
12:53 AM 25.0 °F 18.1 °F 21.9 °F 88% 30.12 in 10.0 mi NE 5.8 mph - N/A   Overcast
1:53 AM 25.0 °F 19.3 °F 21.9 °F 88% 30.14 in 10.0 mi ENE 4.6 mph - N/A   Overcast
2:53 AM 24.1 °F 16.0 °F 19.9 °F 84% 30.15 in 10.0 mi NE 6.9 mph - N/A   Overcast
3:53 AM 23.0 °F 15.8 °F 18.0 °F 81% 30.17 in 10.0 mi ENE 5.8 mph - N/A   Overcast
4:34 AM 23.0 °F 17.0 °F 17.1 °F 78% 30.11 in 10.0 mi NE 4.6 mph - N/A   Overcast
4:53 AM 23.0 °F 14.7 °F 18.0 °F 81% 30.20 in 10.0 mi ENE 6.9 mph - N/A   Overcast
5:53 AM 23.0 °F 14.7 °F 17.1 °F 78% 30.21 in 10.0 mi ENE 6.9 mph - N/A   Overcast
6:53 AM 23.0 °F 14.7 °F 17.1 °F 78% 30.23 in 10.0 mi NE 6.9 mph - N/A   Overcast
7:53 AM 23.0 °F 12.4 °F 17.1 °F 78% 30.24 in 10.0 mi NE 10.4 mph - N/A   Overcast
8:53 AM 24.1 °F 15.2 °F 17.1 °F 75% 30.25 in 10.0 mi NNE 8.1 mph - N/A   Overcast
9:53 AM 25.0 °F 15.5 °F 17.1 °F 72% 30.26 in 10.0 mi NE 9.2 mph - N/A   Overcast
10:53 AM 25.0 °F 14.2 °F 17.1 °F 72% 30.27 in 3.0 mi NNE 11.5 mph - 0.00 in Snow Light Snow
11:19 AM 25.0 °F 15.5 °F 18.0 °F 75% 30.18 in 3.0 mi NE 9.2 mph - 0.00 in Snow Light Snow
11:22 AM 25.0 °F 14.8 °F 18.0 °F 75% 30.18 in 2.0 mi NE 10.4 mph - 0.00 in Snow Light Snow
11:53 AM 25.0 °F 14.8 °F 19.0 °F 78% 30.27 in 1.5 mi NE 10.4 mph - 0.01 in Snow Light Snow
12:01 PM 25.0 °F 15.5 °F 19.0 °F 78% 30.18 in 1.0 mi NNE 9.2 mph - 0.00 in Snow Light Snow
12:31 PM 24.1 °F 13.7 °F 19.9 °F 84% 30.17 in 0.8 mi NNE 10.4 mph - 0.00 in Snow Light Snow
12:53 PM 24.1 °F 13.7 °F 21.0 °F 88% 30.25 in 0.5 mi NNE 10.4 mph - 0.01 in Fog , Snow Snow
1:53 PM 24.1 °F 12.5 °F 21.0 °F 88% 30.22 in 0.5 mi NNE 12.7 mph - 0.03 in Fog , Snow Snow
2:53 PM 24.1 °F 13.1 °F 21.0 °F 88% 30.22 in 0.5 mi NNE 11.5 mph - 0.02 in Snow Light Snow
3:53 PM 24.1 °F 12.5 °F 21.0 °F 88% 30.21 in 0.5 mi NNE 12.7 mph - 0.02 in Snow Light Snow
4:10 PM 24.1 °F 14.4 °F 21.0 °F 88% 30.12 in 0.5 mi NNE 9.2 mph - 0.02 in Snow Light Snow
4:53 PM 23.0 °F 12.4 °F 21.0 °F 92% 30.21 in 0.5 mi NNE 10.4 mph - 0.05 in Snow Light Snow
5:53 PM 23.0 °F 12.4 °F 21.0 °F 92% 30.22 in 0.5 mi NNE 10.4 mph - 0.04 in Snow Light Snow
6:53 PM 23.0 °F 11.7 °F 19.9 °F 88% 30.23 in 0.5 mi NNE 11.5 mph - 0.02 in Snow Light Snow
7:28 PM 23.0 °F 13.9 °F 21.0 °F 92% 30.13 in 1.5 mi NNE 8.1 mph - 0.00 in Snow Light Snow
7:53 PM 23.0 °F 13.1 °F 21.0 °F 92% 30.23 in 1.5 mi NNE 9.2 mph - 0.01 in Snow Light Snow
8:41 PM 23.0 °F 13.1 °F 19.9 °F 88% 30.15 in 5.0 mi NNE 9.2 mph - 0.00 in Snow Light Snow
8:53 PM 23.0 °F 13.9 °F 19.9 °F 88% 30.24 in 5.0 mi NE 8.1 mph - 0.00 in Snow Light Snow
9:25 PM 23.0 °F 13.1 °F 19.9 °F 88% 30.16 in 4.0 mi NE 9.2 mph - 0.00 in Snow Light Snow
9:53 PM 23.0 °F 13.9 °F 19.9 °F 88% 30.26 in 4.0 mi NNE 8.1 mph - 0.00 in Snow Light Snow
10:53 PM 23.0 °F 14.7 °F 19.9 °F 88% 30.27 in 10.0 mi NNE 6.9 mph - 0.00 in   Overcast
11:53 PM 21.9 °F 13.4 °F 19.0 °F 89% 30.27 in 7.0 mi NE 6.9 mph - 0.00 in Snow Light Snow